Regional Weather Roundup
Issued by NWS Sioux Falls, SD

Home | Current Version | Previous Version | Text Only | Print | Product List | Glossary On
Versions: 1 2 3 4 5 6 7 8 9 10 11 12 13 14 15 16 17 18 19 20 21 22 23 24 25 26 27 28 29 30 31 32 33 34 35 36 37 38 39 40 41 42 43 44 45 46 47 48 49 50
000
ASUS43 KFSD 181610
RWRFSD

WEATHER ROUNDUP FOR SE SOUTH DAKOTA/SW MINNESOTA/NW IOWA
NATIONAL WEATHER SERVICE SIOUX FALLS SD
1100 AM CDT FRI AUG 18 2017

NOTE: "FAIR" INDICATES FEW OR NO CLOUDS BELOW 12,000 FEET WITH NO
SIGNIFICANT WEATHER AND OR OBSTRUCTIONS TO VISIBILITY.


SDZ038>040-050-052>070-181700-
SOUTHEAST SOUTH DAKOTA

CITY           SKY/WX    TMP DP  RH WIND       PRES   REMARKS
BROOKINGS      SUNNY     70  61  73 S7        29.94S
CHAMBERLAIN    MOSUNNY   71  63  75 W9        29.95R
HURON          SUNNY     72  62  71 SW9       29.91R
MADISON        FAIR      70  64  83 S12       29.94S
MITCHELL       SUNNY     73  63  70 SW9       29.91F
SIOUX FALLS    MOSUNNY   73  62  68 S9        29.94S
WINNER         FAIR      74  56  53 NW10      29.96R
YANKTON        SUNNY     74  60  61 S5        29.95S
$$

MNZ071-072-080-081-089-090-097-098-181700-
SOUTHWEST MINNESOTA

CITY           SKY/WX    TMP DP  RH WIND       PRES   REMARKS
FAIRMONT       LGT RAIN  64  61  90 CALM      29.95F
JACKSON        CLOUDY    66  61  82 CALM      29.96S
LUVERNE        SUNNY     70  57  64 SE6       29.96S
MARSHALL       MOSUNNY   70  63  78 SW6       29.93S
MONTEVIDEO     LGT RAIN  63  63 100 SW3       29.92S
PIPESTONE      SUNNY     72  63  73 SW7       29.95R
REDWOOD FALLS  CLOUDY    63  59  87 SW7       29.93R
TRACY          MOSUNNY   69  65  86 SW6       29.94S
WINDOM         CLOUDY    66  63  88 S3        29.95R
WORTHINGTON    SUNNY     69  61  75 S6        29.96S
$$

IAZ001>003-012>014-020>022-031-032-NEZ013-014-SDZ071-181700-
NORTHWEST IOWA

CITY           SKY/WX    TMP DP  RH WIND       PRES   REMARKS
CHEROKEE       SUNNY     73  63  68 E9        29.95S
DENISON        SUNNY     75  64  69 NW10      29.96R
ESTHERVILLE    PTSUNNY   64  62  93 SE3       29.95F
LE MARS        SUNNY     73  63  68 VRB7G13   29.94S
ORANGE CITY    SUNNY     75  63  64 E9        29.95S
SHELDON        SUNNY     72  61  68 E8        29.94F
SIOUX CITY     SUNNY     76  65  68 CALM      29.94R
SPENCER        SUNNY     71  59  65 E7        29.96R
STORM LAKE     SUNNY     72  63  73 NE12      29.96R
$$

ABBREVIATIONS USED IN REMARKS
   TC - TEMPERATURE IN CELSIUS
  WCI - WIND CHILL INDEX
   HX - HEAT INDEX
  VSB - VISIBILITY





USA.gov is the U.S. government's official web portal to all federal, state and local government web resources and services.